Location: Ariel
(45.9570°N, 122.5700°W)
Time: 20:52:53
(UTC-07:00)

Vanguard 3 - Pass Details

Date: 30 August 2019
Orbit: 508 x 3263 km, 33.4° (Epoch: 19 September)

Event Time Altitude Azimuth Distance (km) Brightness Sun altitude
Rises 18:51:38 0° 261° (W) 5,204 13.2 9.6°
Reaches altitude 10° 18:56:18 10° 252° (WSW) 3,683 12.1 8.8°
Maximum altitude 19:03:11 26° 200° (SSW) 1,955 9.4 7.6°
Drops below altitude 10° 19:07:46 10° 145° (SE) 2,371 9.2 6.8°
Sets 19:10:07 0° 131° (SE) 3,063 9.6 6.4°
